Showing default

IRIDIUM 150, 43257

Orbit data source: Space-Track

IRIDIUM 150, 43257 is a payload satellite owned by Iridium (US) in LEO that was launched on Fri, 30 Mar 2018 UTC via an FALCON 9 launch vehicle from the Air Force Western Test Range (AFWTR). Payloads include a variety of satellites, spacecraft, and rockets equipped with specific instruments for various scientific and technological missions. These include communications satellites like Starlink; space stations such as the ISS; scientific satellites like the Hubble; Earth observation satellites from companies like Planet Labs, Umbra, and HawkEye 360; GPS; miniature CubeSats for education and research; and military/defense satellites.

Loading next visibility...
IRIDIUM 150 details
Identifier
43257, 2018-030J
Orbit
LEO
Last TLE update7 hours ago
Origin
Flag of USIridium (US)
ManufacturerOATK SSG Gilbert
MissionOperational Commercial Communications
Bus & MotorELITEBUS, Unknown motor
Mass860 kg wet, 700 kg dry
Launch date (UTC)
2018-03-30 (7 years ago)
Launch vehicle
FALCON 9
Launch site
Air Force Western Test Range (AFWTR)
Object type
Payload
Rocket body
Debris
Shape & HBRTrap Box + 2 Pan, 9.4 m
Radar Cross Section14.423 m², Large (>1 m²)

Expand to show TLE details & history

TLE from 7 hours ago
0 IRIDIUM 150
1 43257U 18030J   24348.04661190 -.00000006  00000-0 -93763-5 0  9992
2 43257  86.3989 160.8539 0001582  95.0758 265.0618 14.34217679351188
Epoch: 2024-12-13T01:07Z
Definitive object data (Epoch: 2024-12-13T01:07:07.268Z)
Latitude-0.00004°
Longitude61.8554°
Altitude780.816 km
Speed7.463 km/s
True Right ascension10h 43m 24s
True Declination0° 00' 00"
Sunlit
Object was in daylight at TLE epoch
Visualization TLE readout
Latitude39.97587°
Longitude-121.28086°
Altitude782.669 km
Speed7.467 km/s
Apparent Right ascension20h 50m 50s
Apparent Declination3° 07' 44"
Sunlit
Object is in daylight
Visualization observer readout
Local Sidereal Time06:57:37
Azimuth322.001° NNW
Elevation-39.737°
Doppler factor1
Orbital elements
Apogee altitude775.763 km
Perigee altitude773.5 km
Semi-major axis7,152.769 km
Eccentricity0.0001582
Inclination86.3989°
RAAN160.8539°
Arg. of periapsis95.0758°
True anomaly265.04374°
Mean anomaly265.0618°
Eccentric anomaly265.05277°
Mean motion3.58783 °/min
BSTAR-0.0000093763
Orbital period100.34 mins
Loading maneuver chart data...
Loading historical data...
Loading historical data...
Loading historical data...
Loading historical data...
Loading historical data...
Loading historical data...
Loading historical data...

IRIDIUM 150 Visibility forecast

Observer location: undefined°, undefined

Span
Click to sort rows by Start time (UTC) header in descending order
Start Az.
Max El. time (UTC)
Max El. Az.
Max El.
End time (UTC)
End Az.
7 mins2024-12-13 11:18:01.177Z125.356° SE2024-12-13 11:21:01.177Z85.445° E20.697°2024-12-13 11:25:01.177Z33.146° NE
8 mins2024-12-13 12:58:01.177Z215.302° SW2024-12-13 13:02:01.177Z287.314° WNW32.043°2024-12-13 13:06:01.177Z344.259° N
8 mins2024-12-13 23:29:01.177Z17.251° NNE2024-12-13 23:32:01.177Z79.858° E37.817°2024-12-13 23:37:01.177Z159.791° S
4 mins2024-12-14 01:11:01.177Z299.279° NW2024-12-14 01:12:01.177Z285.55° WNW16.475°2024-12-14 01:15:01.177Z246.761° WSW
|